Miscellaneous Local Product
Issued by NWS North Platte, NE

Home | Current Version | Previous Version | Graphics & Text | Print | Product List | Glossary On
Versions: 1 2 3 4 5 6 7 8 9 10 11 12 13 14 15 16 17 18 19 20 21 22 23 24 25 26 27 28 29 30 31 32 33 34 35 36 37 38 39 40 41 42 43 44 45 46 47 48 49 50
580
AXUS43 KLBF 022110
MISLBF


WESTERN AND NORTH CENTRAL NEBRASKA HOURLY WEATHER ROUNDUP
NATIONAL WEATHER SERVICE NORTH PLATTE NE
400 PM CDT MON MAY 02 2016

NOTE: "FAIR" INDICATES FEW OR NO CLOUDS BELOW 12,000 FEET WITH NO
SIGNIFICANT WEATHER AND/OR OBSTRUCTIONS TO VISIBILITY.

NOTE: STATIONS NOT REPORTING VARIABLES SUCH AS SKY/WEATHER OR
PRESSURE ARE PROVIDED BY RAWS AND APRS NETWORKS AND ARE NOT UNDER
NATIONAL WEATHER SERVICE QUALITY CONTROL.

...OBSERVATIONS IN AND NEAR THE EASTERN PANHANDLE OF NEBRASKA...

CITY           SKY/WX    TMP DP  RH WIND       PRES   REMARKS
CHADRON        MOSUNNY   65  30  27 W9G20     30.04F
ALLIANCE       SUNNY     62  30  29 NW15      30.05F
SIDNEY         SUNNY     59  27  29 NW14      30.12F
CRESCENT LAKE    N/A     57  33  40 W13G22      N/A
BIG SPRINGS      N/A     57  36  46 NW7         N/A
$$

...OBSERVATIONS IN NORTHERN NEBRASKA AND FAR SOUTHERN SOUTH DAKOTA...

CITY           SKY/WX    TMP DP  RH WIND       PRES   REMARKS
WINNER         CLOUDY    63  37  38 W10       30.02F
VALENTINE      CLOUDY    61  30  31 NW6       30.04F
THEDFORD       CLOUDY    58  32  37 CALM      30.08F
AINSWORTH      CLOUDY    59  33  36 W5        30.05F
O`NEILL        CLOUDY    61  34  35 W5        30.07F
ORD            CLOUDY    59  37  44 S6        30.07F
BROKEN BOW     CLOUDY    59  32  36 CALM      30.07F
VALENTINE NWR    N/A     62  32  32 W8          N/A
BUTTE            N/A     61  37  41 S6          N/A
HALSEY           N/A     59  31  35 NW5         N/A
CHAMBERS         N/A     66  38  36 S5          N/A
EWING            N/A     61  42  48 MISG        N/A
$$

...OBSERVATIONS IN SOUTHWEST NEBRASKA AND FAR NORTHEAST COLORADO...

CITY           SKY/WX    TMP DP  RH WIND       PRES   REMARKS
HOLYOKE        FAIR      61  32  33 N8        30.12F
IMPERIAL       MOSUNNY   60  30  32 N13       30.11F
OGALLALA       CLOUDY    58  33  39 W8        30.10F
NORTH PLATTE   CLOUDY    61  33  35 W8        30.08F
MCCOOK         SUNNY     62  35  36 VRB5      30.08F
LEXINGTON      MOSUNNY   59  35  39 CALM      30.08F
PAXTON           N/A     60  39  46 W7          N/A
STAPLETON        N/A     58  30  34 CALM        N/A
GOTHENBURG       N/A     62  33  34 W3          N/A
CALLAWAY         N/A     59  39  46 W9          N/A
$$

...OBSERVATIONS IN CENTRAL LINCOLN COUNTY AREA...

CITY           SKY/WX    TMP DP  RH WIND       PRES   REMARKS
N.P. AIRPORT   CLOUDY    61  33  35 W8        30.08F
N.P. DOWNTOWN    N/A     61  32  34 NW6         N/A
N.P. HILLCREST   N/A     61  32  34 N10G17      N/A
$$

...SOME OBSERVATIONS FROM AROUND THE REGION...

CITY           SKY/WX    TMP DP  RH WIND       PRES   REMARKS
DENVER         MOSUNNY   56  23  27 VRB5G18   30.15F
LARAMIE        SUNNY     42  27  55 W9        30.19F
CHEYENNE       SUNNY     53  12  19 NW17G26   30.16F
SCOTTSBLUFF    SUNNY     62  31  31 W14G22    30.08F
RAPID CITY     PTSUNNY   66  34  30 NW22G28   30.02F
BISMARCK       MOSUNNY   64  42  44 E5        29.98F
PIERRE         CLOUDY    57  42  57 NW6       30.01F
SIOUX FALLS    CLOUDY    62  36  37 VRB3      30.04F
OMAHA          PTSUNNY   62  39  42 CALM      30.07F
GRAND ISLAND   CLOUDY    59  35  40 CALM      30.10F
KANSAS CITY    CLOUDY    56  46  69 CALM      30.08F
WICHITA        PTSUNNY   62  41  46 NW13      30.11F
OKLAHOMA CITY  PTSUNNY   63  45  51 NW12      30.12F
DALLAS         CLOUDY    65  47  52 NW13      30.10F
AMARILLO       SUNNY     61  35  37 N13       30.18F
DODGE CITY     SUNNY     61  35  37 W8        30.13F
HAYS           MOSUNNY   63  37  39 NW3       30.10F
GOODLAND       SUNNY     62  29  28 N13       30.11F
$$




USA.gov is the U.S. government's official web portal to all federal, state and local government web resources and services.